This is the latest recevied weather packets stored in our database for station/object N9BID. If no packets are shown the sender has not sent any weather packets the latest 10 day(s).
| Time | Temp. | Humidity | Pressure | Rain* | Wind** | Luminosity | Snow |
|---|---|---|---|---|---|---|---|
| 1777964633 | 1.67° C | 77% | 996.3 hPa | 0 mm | - | 0 W/m² | - |
| 1777964328 | 1.67° C | 76% | 996.3 hPa | 0 mm | - | 0 W/m² | - |
| 1777964025 | 2.22° C | 74% | 996.5 hPa | 0 mm | - | 0 W/m² | - |
| 1777963722 | 2.22° C | 74% | 996.7 hPa | 0 mm | - | 0 W/m² | - |
| 1777963419 | 2.22° C | 74% | 996.4 hPa | 0 mm | - | 0 W/m² | - |
| 1777963117 | 2.22° C | 74% | 996.4 hPa | 0 mm | - | 0 W/m² | - |
| 1777962813 | 2.22° C | 73% | 996.4 hPa | 0 mm | - | 0 W/m² | - |
| 1777962510 | 2.78° C | 72% | 996.5 hPa | 0 mm | - | 0 W/m² | - |
| 1777962207 | 2.78° C | 71% | 996.4 hPa | 0 mm | - | 0 W/m² | - |
| 1777961904 | 2.78° C | 70% | 996.6 hPa | 0 mm | - | 0 W/m² | - |
| 1777961602 | 3.33° C | 69% | 996.8 hPa | 0 mm | - | 0 W/m² | - |
| 1777961299 | 3.33° C | 67% | 996.7 hPa | 0 mm | - | 0 W/m² | - |
| 1777960996 | 3.89° C | 66% | 996.7 hPa | 0 mm | - | 0 W/m² | - |
| 1777960692 | 3.33° C | 66% | 996.9 hPa | 0 mm | - | 0 W/m² | - |
| 1777960388 | 3.89° C | 65% | 996.6 hPa | 0 mm | - | 0 W/m² | - |
| 1777960086 | 3.89° C | 64% | 996.7 hPa | 0 mm | - | 0 W/m² | - |
| 1777959783 | 3.89° C | 65% | 996.7 hPa | 0 mm | - | 0 W/m² | - |
| 1777959481 | 3.89° C | 65% | 996.6 hPa | 0 mm | - | 0 W/m² | - |
| 1777959178 | 3.89° C | 64% | 996.7 hPa | 0 mm | - | 0 W/m² | - |
| 1777958874 | 4.44° C | 62% | 996.6 hPa | 0 mm | - | 0 W/m² | - |
| 1777958571 | 4.44° C | 62% | 996.5 hPa | 0 mm | - | 0 W/m² | - |
| 1777958268 | 5° C | 62% | 996.4 hPa | 0 mm | - | 0 W/m² | - |
| 1777957966 | 5° C | 60% | 996.3 hPa | 0 mm | - | 0 W/m² | - |
| 1777957664 | 5° C | 61% | 996.3 hPa | 0 mm | - | 0 W/m² | - |
| 1777957362 | 4.44° C | 62% | 996.4 hPa | 0 mm | - | 0 W/m² | - |
* Rain latest hour (hover to see other rain measurements)
** Current wind speed in m/s (hover to see current wind gust speed)